Flag for U.S.A. Weather past 2 weeks in Odessa, Texas, U.S.A.

Now
46 °F

Sunny.


Feels Like: 40 °F
Forecast: 47 / 60 °F
Wind: 15 mph from Northeast

Location: Odessa-Schlemeyer Field

Current Time: Jan 29, 2015 at 8:24:21 AM

Latest Report: Jan 29, 2015 at 7:53 AM


Visibility: 10 mi

Pressure: 30.19 "Hg

Humidity: 73%

Dew point: 38 °F

Location of OdessaLocation

Historic Weather in Odessa — Graph

°F

Odessa temperature yesterday

Maximum temperature yesterday: 78 °F (at 3:53 PM)
Minimum temperature yesterday: 44 °F (at 7:53 AM)
Average temperature yesterday: 61 °F

Past Weeks' High & Low Weather Summary

 TemperatureHumidityPressure
High78 °F (Jan 28, 3:53 PM)93% (Jan 21, 8:53 PM)30.38 "Hg (Jan 21, 8:53 PM)
Low22 °F (Jan 23, 7:53 AM)13% (Jan 19, 3:53 PM)29.87 "Hg (Jan 20, 4:53 AM)
Average46 °F59%30.16 "Hg
* Reported Jan 14 7:01 AM — Jan 29 6:53 AM, Odessa, Weather by CustomWeather, © 2014

Note: Actual official high and low records may vary slightly from our data, if they occured in-between our weather recording intervals... More about our weather records

Advertising

Odessa weather history for previous 24 hours

 ConditionsComfort  
Time TempWeatherWind HumidityBarometerVisibility
6:53 AM
Jan 29
46 °FPassing clouds.9 mph77%30.14 "Hg10 mi
5:53 AM47 °FClear.12 mph77%30.11 "Hg10 mi
4:53 AM46 °FClear.9 mph79%30.08 "Hg10 mi
3:53 AM48 °FClear.8 mph74%30.06 "Hg10 mi
2:53 AM57 °FClear.5 mph49%30.03 "Hg10 mi
1:53 AM57 °FClear.5 mph53%30.03 "Hg10 mi
12:53 AM58 °FClear.8 mph54%30.03 "Hg10 mi
11:53 PM
Jan 28
56 °FClear.6 mph65%30.04 "Hg10 mi
10:53 PM58 °FClear.7 mph60%30.04 "Hg10 mi
9:53 PM59 °FClear.3 mph56%30.04 "Hg10 mi
8:53 PM61 °FClear.5 mph54%30.04 "Hg9 mi
7:53 PM66 °FClear.No wind43%30.01 "Hg10 mi
6:53 PM68 °FClear.5 mph40%29.99 "Hg10 mi
5:53 PM73 °FSunny.5 mph33%29.97 "Hg10 mi
4:53 PM76 °FSunny.12 mph30%29.97 "Hg10 mi
3:53 PM78 °FSunny.12 mph28%29.96 "Hg10 mi
2:53 PM77 °FSunny.13 mph28%29.97 "Hg10 mi
1:53 PM76 °FSunny.10 mph30%29.99 "Hg10 mi
12:53 PM73 °FSunny.8 mph36%30.01 "Hg10 mi
11:53 AM69 °FSunny.15 mph41%30.08 "Hg10 mi
10:53 AM68 °FSunny.10 mph44%30.08 "Hg10 mi
9:53 AM62 °FSunny.8 mph56%30.09 "Hg10 mi
8:53 AM50 °FSunny.5 mph71%30.10 "Hg8 mi
Weather by CustomWeather, © 2014

See weather overviewHow to use our weather pages